| time (UTC) | temp C | wind direction | speed KPH | gust KPH | rain 1hr cm | rain 24hr cm | rain mn cm | humidity % | barometer mb |
| 20260504214520 | 22 | 0.0 | 0.0 | 0.00 | 0.00 | 0.00 | 89 | 1018.2 | |
| 20260504213519 | 22 | 0.0 | 0.0 | 0.00 | 0.00 | 0.00 | 90 | 1017.7 | |
| 20260504212519 | 22 | 0.0 | 0.0 | 0.00 | 0.00 | 0.00 | 90 | 1017.2 | |
| 20260504211520 | 22 | 0.0 | 0.0 | 0.00 | 0.00 | 0.00 | 90 | 1017.2 | |
| 20260504210519 | 22 | 113 | 0.0 | 3.2 | 0.00 | 0.00 | 0.00 | 90 | 1017.2 |
| 20260504205519 | 22 | 133 | 1.6 | 4.8 | 0.00 | 0.00 | 0.00 | 89 | 1017.2 |
| 20260504204520 | 22 | 158 | 0.0 | 1.6 | 0.00 | 0.00 | 0.00 | 88 | 1017.2 |
| 20260504203519 | 22 | 158 | 0.0 | 3.2 | 0.00 | 0.00 | 0.00 | 87 | 1017.2 |
| 20260504202520 | 22 | 144 | 0.0 | 3.2 | 0.00 | 0.00 | 0.00 | 87 | 1017.2 |
| 20260504201520 | 22 | 180 | 0.0 | 1.6 | 0.00 | 0.00 | 0.00 | 87 | 1017.2 |
| 20260504200520 | 22 | 0.0 | 1.6 | 0.00 | 0.00 | 0.00 | 87 | 1017.2 | |
| 20260504195519 | 22 | 123 | 3.2 | 4.8 | 0.00 | 0.00 | 0.00 | 86 | 1017.2 |
| 20260504194519 | 22 | 0.0 | 0.0 | 0.00 | 0.00 | 0.00 | 86 | 1017.2 | |
| 20260504193519 | 22 | 143 | 1.6 | 4.8 | 0.00 | 0.00 | 0.00 | 86 | 1017.2 |
| 20260504192520 | 23 | 158 | 1.6 | 3.2 | 0.00 | 0.00 | 0.00 | 85 | 1017.2 |
| 20260504191519 | 23 | 132 | 1.6 | 4.8 | 0.00 | 0.00 | 0.00 | 83 | 1017.2 |
| 20260504190520 | 23 | 113 | 1.6 | 3.2 | 0.00 | 0.00 | 0.00 | 83 | 1017.2 |
| 20260504185519 | 23 | 0.0 | 0.0 | 0.00 | 0.00 | 0.00 | 81 | 1017.2 | |
| 20260504184520 | 23 | 135 | 0.0 | 3.2 | 0.00 | 0.00 | 0.00 | 81 | 1018.1 |
| 20260504183520 | 23 | 0.0 | 0.0 | 0.00 | 0.00 | 0.00 | 80 | 1018.2 | |
| 20260504182519 | 24 | 260 | 3.2 | 4.8 | 0.00 | 0.00 | 0.00 | 80 | 1018.2 |
| 20260504181520 | 24 | 0.0 | 0.0 | 0.00 | 0.00 | 0.00 | 80 | 1018.2 | |
| 20260504180519 | 24 | 158 | 0.0 | 1.6 | 0.00 | 0.00 | 0.00 | 80 | 1018.2 |
| 20260504175520 | 23 | 237 | 1.6 | 4.8 | 0.00 | 0.00 | 0.00 | 81 | 1018.2 |
| 20260504174520 | 23 | 137 | 1.6 | 4.8 | 0.00 | 0.00 | 0.00 | 81 | 1018.2 |
| 20260504173520 | 23 | 248 | 0.0 | 4.8 | 0.00 | 0.00 | 0.00 | 82 | 1018.8 |
| 20260504172520 | 23 | 260 | 4.8 | 6.4 | 0.00 | 0.00 | 0.00 | 82 | 1019.2 |
| 20260504171519 | 23 | 0.0 | 0.0 | 0.00 | 0.00 | 0.00 | 83 | 1019.2 | |
| 20260504170519 | 23 | 253 | 4.8 | 8.0 | 0.00 | 0.00 | 0.00 | 82 | 1019.2 |
| 20260504150520 | 23 | 132 | 3.2 | 4.8 | 0.00 | 0.00 | 0.00 | 77 | 1020.2 |
| 20260504140520 | 22 | 130 | 1.6 | 3.2 | 0.00 | 0.00 | 0.00 | 81 | 1021.2 |
| 20260504130520 | 20 | 268 | 4.8 | 6.4 | 0.00 | 0.00 | 0.00 | 87 | 1021.2 |
| 20260504110523 | 17 | 251 | 1.6 | 6.4 | 0.00 | 0.00 | 0.00 | 97 | 1021.2 |
| 20260504100522 | 17 | 267 | 3.2 | 4.8 | 0.00 | 0.00 | 0.00 | 95 | |
| 20260504081520 | 17 | 0.0 | 0.0 | 0.00 | 0.00 | 0.00 | 92 | 1020.2 | |
| 20260504080522 | 17 | 0.0 | 0.0 | 0.00 | 0.00 | 0.00 | 93 | 1020.2 | |
| 20260504050522 | 18 | 248 | 0.0 | 3.2 | 0.00 | 0.00 | 0.00 | 90 | 1021.2 |
| 20260504045520 | 18 | 0.0 | 0.0 | 0.00 | 0.00 | 0.00 | 90 | 1021.2 | |
| 20260504044520 | 18 | 0.0 | 0.0 | 0.00 | 0.00 | 0.00 | 91 | 1021.2 | |
| 20260504043522 | 18 | 250 | 3.2 | 3.2 | 0.00 | 0.00 | 0.00 | 91 | 1021.2 |
| 20260504042520 | 18 | 0.0 | 0.0 | 0.00 | 0.00 | 0.00 | 90 | 1021.2 | |
| 20260504041520 | 18 | 0.0 | 0.0 | 0.00 | 0.00 | 0.00 | 90 | 1021.2 | |
| 20260504040522 | 18 | 0.0 | 0.0 | 0.00 | 0.00 | 0.00 | 90 | 1021.2 | |
| 20260504035520 | 18 | 0.0 | 0.0 | 0.00 | 0.00 | 0.00 | 90 | 1021.2 | |
| 20260504034520 | 18 | 0.0 | 0.0 | 0.00 | 0.00 | 0.00 | 89 | 1021.2 | |
| 20260504033522 | 18 | 0.0 | 0.0 | 0.00 | 0.00 | 0.00 | 89 | 1021.7 | |
| 20260504032520 | 18 | 0.0 | 0.0 | 0.00 | 0.00 | 0.00 | 89 | 1022.2 | |
| 20260504031520 | 18 | 0.0 | 0.0 | 0.00 | 0.00 | 0.00 | 89 | 1022.2 | |
| 20260504030522 | 18 | 0.0 | 0.0 | 0.00 | 0.00 | 0.00 | 89 | 1022.2 | |
| 20260504025520 | 18 | 139 | 0.0 | 3.2 | 0.00 | 0.00 | 0.00 | 89 | 1022.2 |
| 20260504024520 | 18 | 0.0 | 0.0 | 0.00 | 0.00 | 0.00 | 89 | 1022.2 | |
| 20260504023522 | 18 | 129 | 1.6 | 3.2 | 0.00 | 0.00 | 0.00 | 89 | 1022.5 |
| 20260504022520 | 18 | 113 | 1.6 | 3.2 | 0.00 | 0.00 | 0.00 | 89 | 1023.2 |
| 20260504021520 | 18 | 138 | 1.6 | 3.2 | 0.00 | 0.00 | 0.00 | 89 | 1023.2 |
| 20260504020522 | 18 | 180 | 0.0 | 1.6 | 0.00 | 0.00 | 0.00 | 89 | 1023.2 |
| 20260504015520 | 18 | 0.0 | 0.0 | 0.00 | 0.00 | 0.00 | 89 | 1023.2 | |
| 20260504014520 | 18 | 122 | 0.0 | 3.2 | 0.00 | 0.00 | 0.00 | 89 | 1023.2 |
| 20260504013522 | 18 | 0.0 | 0.0 | 0.00 | 0.00 | 0.00 | 89 | 1023.2 | |
| 20260504012520 | 18 | 0.0 | 0.0 | 0.00 | 0.00 | 0.00 | 89 | 1023.2 | |
| 20260504011520 | 18 | 0.0 | 0.0 | 0.00 | 0.00 | 0.00 | 89 | 1023.2 | |
| 20260504010523 | 18 | 0.0 | 0.0 | 0.00 | 0.00 | 0.00 | 89 | 1023.2 | |
| 20260504005520 | 18 | 113 | 0.0 | 3.2 | 0.00 | 0.00 | 0.00 | 89 | 1023.2 |
| 20260504004520 | 18 | 0.0 | 0.0 | 0.00 | 0.00 | 0.00 | 88 | 1023.2 | |
| 20260504003522 | 18 | 135 | 0.0 | 3.2 | 0.00 | 0.00 | 0.00 | 87 | 1023.2 |
| 20260504002520 | 18 | 158 | 0.0 | 3.2 | 0.00 | 0.00 | 0.00 | 87 | 1023.2 |
| 20260504001520 | 18 | 0.0 | 0.0 | 0.00 | 0.00 | 0.00 | 86 | 1023.2 | |
| 20260504000522 | 18 | 122 | 3.2 | 3.2 | 0.00 | 0.00 | 0.00 | 86 | 1023.2 |
| 20260503235520 | 19 | 132 | 1.6 | 3.2 | 0.00 | 0.00 | 0.00 | 85 | 1023.2 |
| 20260503234520 | 18 | 0.0 | 0.0 | 0.00 | 0.00 | 0.00 | 84 | 1023.2 | |
| 20260503233522 | 18 | 0.0 | 0.0 | 0.00 | 0.00 | 0.00 | 84 | 1022.5 | |
| 20260503232520 | 18 | 135 | 0.0 | 3.2 | 0.00 | 0.00 | 0.00 | 83 | 1022.2 |
| 20260503231520 | 18 | 0.0 | 0.0 | 0.00 | 0.00 | 0.00 | 82 | 1022.2 | |
| 20260503230522 | 19 | 135 | 0.0 | 3.2 | 0.00 | 0.00 | 0.00 | 82 | 1023.2 |
| 20260503225520 | 19 | 0.0 | 0.0 | 0.00 | 0.00 | 0.00 | 82 | 1022.2 | |
| 20260503224520 | 19 | 0.0 | 0.0 | 0.00 | 0.00 | 0.00 | 82 | 1023.2 | |
| 20260503223522 | 19 | 141 | 1.6 | 3.2 | 0.00 | 0.00 | 0.00 | 81 | 1022.7 |
| 20260503222520 | 19 | 125 | 1.6 | 3.2 | 0.00 | 0.00 | 0.00 | 80 | 1022.2 |
| 20260503221520 | 20 | 135 | 0.0 | 3.2 | 0.00 | 0.00 | 0.00 | 79 | 1022.2 |
| 20260503220522 | 20 | 141 | 1.6 | 3.2 | 0.00 | 0.00 | 0.00 | 78 | 1022.2 |
| 20260503215520 | 20 | 0.0 | 0.0 | 0.00 | 0.00 | 0.00 | 78 | 1022.2 |